Home   Weather   Reno   Past weeks

Flag for USA Past Weather in Reno, Nevada, USA — Yesterday and Last 2 Weeks

Now
45 °F

Scattered clouds.


Feels Like: 45 °F
Forecast: 23 / 48 °F
Wind: No wind

Location: Reno Tahoe International Airport

Current Time: Dec 3, 2016 at 2:08:17 pm

Latest Report: Dec 3, 2016 at 12:55 pm


Visibility: 10 mi

Pressure: 30.33 "Hg (25.66 "Hg at 1372m altitude)

Humidity: 30%

Dew Point: 15 °F

Location of RenoLocation

Past Weather in Reno — Graph

°F

Reno Temperature Yesterday

Maximum temperature yesterday: 40 °F (at 1:55 pm)
Minimum temperature yesterday: 21 °F (at 6:55 am)
Average temperature yesterday: 31 °F

High & Low Weather Summary for the Past Weeks

 TemperatureHumidityPressure
High66 °F (Nov 19, 11:55 am)89% (Nov 21, 6:55 am)30.42 "Hg (Nov 21, 6:55 am)
Low21 °F (Dec 2, 6:55 am)7% (Nov 25, 3:55 pm)29.59 "Hg (Nov 26, 9:55 pm)
Average39 °F55%30.04 "Hg
* Reported Nov 18 12:55 pm — Dec 3 12:55 pm, Reno, Weather by CustomWeather, © 2016

Note: Actual official high and low records may vary slightly from our data, if they occured in-between our weather recording intervals... More about our weather records

Advertising

Reno Weather History for the Previous 24 Hours

Scroll right to see more
 ConditionsComfort  
Time TempWeatherWind HumidityBarometerVisibility
12:55 pm
Sat, Dec 3
45 °FScattered clouds.No wind30%30.33 "Hg10 mi
11:55 am42 °FPassing clouds.No wind33%30.36 "Hg10 mi
10:55 am38 °FPassing clouds.No wind41%30.40 "Hg10 mi
9:55 am33 °FPassing clouds.No wind49%30.41 "Hg10 mi
8:55 am28 °FPassing clouds.3 mph64%30.42 "Hg10 mi
7:55 am24 °FScattered clouds.No wind71%30.42 "Hg10 mi
6:55 am22 °FPassing clouds.5 mph72%30.42 "Hg10 mi
5:55 am22 °FPassing clouds.3 mph72%30.40 "Hg10 mi
4:55 am24 °FPassing clouds.No wind65%30.39 "Hg10 mi
3:55 am24 °FPassing clouds.No wind68%30.36 "Hg10 mi
2:55 am26 °FPassing clouds.No wind63%30.35 "Hg10 mi
1:55 am25 °FPassing clouds.No wind66%30.36 "Hg10 mi
11:55 pm
Fri, Dec 2
28 °FClear.No wind56%30.36 "Hg10 mi
10:55 pm29 °FPassing clouds.No wind54%30.38 "Hg10 mi
9:55 pm30 °FPassing clouds.No wind49%30.38 "Hg10 mi
8:55 pm31 °FPassing clouds.No wind47%30.39 "Hg10 mi
7:55 pm32 °FPassing clouds.5 mph47%30.39 "Hg10 mi
6:55 pm32 °FClear.6 mph45%30.40 "Hg10 mi
5:55 pm33 °FClear.3 mph43%30.37 "Hg10 mi
4:55 pm35 °FPassing clouds.7 mph38%30.37 "Hg10 mi
3:55 pm38 °FPassing clouds.9 mph36%30.34 "Hg10 mi
2:55 pm40 °FPassing clouds.12 mph35%30.33 "Hg10 mi
Weather by CustomWeather, © 2016

See weather overviewHow to use our weather pages